This demonstration page uses our WeatherBlox Daily Observations layout. Learn more.

Left ArrowRight Arrow

34.16533, -84.80231

Hourly Observations for August 4, 2017

Temp ( °F °C ) Dew Point ( °F °C ) Humidity (%) Winds ( mph kmh ) Pressure ( in mb ) Visibility ( mi km ) Precip ( " mm )
12:53 am 00:53 Mostly Cloudy 72 22.2 70 21.1 94 94 S 6 9 30.07 1018 10 16 0.00 0.00
1:53 am 01:53 Partly Cloudy 72 22.2 69 20.6 91 91 Calm 30.04 1017 10 16 0.00 0.00
2:53 am 02:53 Clear 70 21.1 69 20.6 97 97 Calm 30.03 1017 10 16 0.00 0.00
3:53 am 03:53 Mostly Cloudy 70 21.1 69 20.6 97 97 Calm 30.04 1017 10 16 0.00 0.00
4:22 am 04:22 Cloudy 70 21.1 70 21.1 100 100 Calm 30.06 1018 10 16 0.00 0.00
4:53 am 04:53 Mostly Cloudy 69 20.6 69 20.6 100 100 Calm 30.04 1017 10 16 0.00 0.00
5:53 am 05:53 Mostly Cloudy 68 20 68 20 100 100 Calm 30.04 1017 8 13 0.00 0.00
6:25 am 06:25 Mostly Clear 68 20 68 20 100 100 Calm 30.06 1018 9 14 0.00 0.00
6:53 am 06:53 Mostly Clear 67 19.4 67 19.4 100 100 Calm 30.05 1018 8 13 0.00 0.00
7:53 am 07:53 Mostly Cloudy 70 21.1 70 21.1 100 100 Calm 30.06 1018 8 13 0.00 0.00
8:49 am 08:49 Mostly Cloudy 72 22 70 21 94 94 Calm 30.09 1019 10 16 0.00 0.00
8:53 am 08:53 Mostly Cloudy 72 22.2 70 21.1 94 94 Calm 30.07 1018 10 16 0.00 0.00
9:16 am 09:16 Partly Cloudy 75 23.9 71 21.7 88 88 VRB 3 6 30.09 1019 10 16 0.00 0.00
9:53 am 09:53 Sunny 76 24.4 70 21.1 82 82 VRB 6 9 30.06 1018 10 16 0.00 0.00
10:16 am 10:16 Mostly Cloudy 76 24.4 70 21.1 82 82 SSW 3 6 30.06 1018 10 16 0.00 0.00
10:53 am 10:53 Mostly Cloudy 77 25 70 21.1 79 79 Calm 30.07 1018 10 16 0.00 0.00
11:36 am 11:36 Partly Cloudy 79 26.1 70 21.1 74 74 Calm 30.03 1017 10 16 0.00 0.00
11:45 am 11:45 Mostly Cloudy 78 25.6 70 21.1 76 76 Calm 30.03 1017 10 16 0.00 0.00
11:53 am 11:53 Mostly Cloudy 79 26.1 70 21.1 74 74 S 6 9 30.06 1018 10 16 0.00 0.00
12:25 pm 12:25 Mostly Cloudy 80 26.7 70 21.1 71 71 SSE 3 6 30.03 1017 10 16 0.00 0.00
12:32 pm 12:32 Mostly Cloudy 82 27.8 70 21.1 67 67 Calm 30.03 1017 10 16 0.00 0.00
12:53 pm 12:53 Mostly Sunny 83 28.3 70 21.1 65 65 Calm 30.04 1017 10 16 0.00 0.00
1:53 pm 13:53 Partly Cloudy 84 28.9 69 20.6 61 61 S 6 9 30.01 1016 10 16 0.00 0.00
2:53 pm 14:53 Mostly Cloudy 86 30 69 20.6 57 57 S 7 11 29.99 1016 10 16 0.00 0.00
3:53 pm 15:53 Mostly Cloudy 86 30 70 21.1 59 59 Calm 29.97 1015 10 16 0.00 0.00
4:53 pm 16:53 Mostly Cloudy 86 30 71 21.7 61 61 VRB 3 6 29.95 1014 10 16 0.00 0.00
5:53 pm 17:53 Sunny 86 30 70 21.1 59 59 S 6 9 29.94 1014 10 16 0.00 0.00
6:53 pm 18:53 Sunny 84 28.9 69 20.6 61 61 VRB 5 7 29.96 1014 10 16 0.00 0.00
7:53 pm 19:53 Mostly Sunny 80 26.7 73 22.8 79 79 S 3 6 29.96 1014 10 16 0.00 0.00
8:53 pm 20:53 Mostly Clear 79 26.1 73 22.8 82 82 Calm 29.97 1015 10 16 0.00 0.00
9:53 pm 21:53 Clear 76 24.4 73 22.8 91 91 Calm 29.98 1015 10 16 0.00 0.00
10:53 pm 22:53 Mostly Cloudy 74 23.3 73 22.8 97 97 Calm 29.99 1016 10 16 0.00 0.00
11:53 pm 23:53 Clear 75 23.9 73 22.8 94 94 Calm 29.98 1015 10 16 0.00 0.00

Powered by AerisWeather